Location: Newark
(43.0000°N, 1.6781°W)
Time: 23:31:39
(UTC+00:00)

N. Korean satellite - Pass Details

Date: 04 December 2021
Orbit: 447 x 491 km, 97.3° (Epoch: 21 January)

Event Time Altitude Azimuth Distance (km) Brightness Sun altitude
Rises 06:24:44 0° 353° (N) 2,465 9.9 -10.2°
Reaches altitude 10° 06:27:24 10° 330° (NNW) 1,583 8.7 -9.7°
Maximum altitude 06:29:24 15° 293° (WNW) 1,298 8.1 -9.4°
Drops below altitude 10° 06:31:24 10° 257° (WSW) 1,573 8.7 -9.0°
Sets 06:34:03 0° 233° (SW) 2,439 9.8 -8.6°
